Weather History for Daviess Cnty AP, Washington,, IN

Change the Weather History Date:

Wednesday, January 8, 2014

  Actual Average (KLWV) Record (KLWV)
Temperature  
Mean Temperature 22 °F 31 °F  
Max Temperature 31 °F 39 °F 63 °F (2006)
Min Temperature 14 °F 23 °F 0 °F (2015)
Degree Days  
Heating Degree Days 42 34  
Month to date heating degree days 272  
Since 1 July heating degree days 2071  
Cooling Degree Days 0 0  
Month to date cooling degree days 0  
Year to date cooling degree days 0  
Moisture  
Dew Point 17 °F    
Average Humidity 74    
Maximum Humidity 96    
Minimum Humidity 62    
Precipitation  
Precipitation 0.00 in 0.08 in 1.14 in (2008)
Month to date precipitation 0.74  
Year to date precipitation 0.74  
Sea Level Pressure  
Sea Level Pressure 30.39 in    
Wind  
Wind Speed 6 mph (SSW)    
Max Wind Speed 12 mph    
Max Gust Speed -    
Visibility 10 miles    
Events Snow    
T = Trace of Precipitation, MM = Missing Value Source: NWS Daily Summary

Daily Weather History Graph

Daily Weather History Graph

Search for Another Location

Airport:

Trip Planner

Search our weather history database for the weather conditions in past years. The results will help you decide how hot, cold, wet, or windy it might be!

Date:

Astronomy

Jan. 08, 2014 Rise Set
Actual Time 8:06 AM EST 5:44 PM EST
Civil Twilight 7:37 AM EST 6:13 PM EST
Nautical Twilight 7:04 AM EST 6:46 PM EST
Astronomical Twilight 6:32 AM EST 7:18 PM EST
Moon 12:34 PM EST (1/8) 1:14 AM EST (1/8)
Length of Visible Light 10h 36m
Length of Day
9h 37m
First Quarter, 56% of the Moon is Illuminated
Jan 8
First Quarter
Jan 15
Full
Jan 24
Last Quarter
Jan 30
New
Feb 6
First Quarter

Hourly Weather History & Observations

Time (EST) Temp. Windchill Dew Point Humidity Pressure Visibility Wind Dir Wind Speed Gust Speed Precip Events Conditions
12:15 AM 14.2 °F 4.1 °F 6.8 °F 73% 30.34 in 10.0 mi SSE 6.9 mph - N/A   Clear
12:35 AM 14.2 °F 4.1 °F 6.8 °F 73% 30.33 in 10.0 mi South 6.9 mph - N/A   Clear
12:55 AM 14.5 °F 3.6 °F 6.8 °F 71% 30.33 in 10.0 mi South 8.1 mph - N/A   Clear
1:15 AM 14.7 °F 2.9 °F 7.2 °F 72% 30.33 in 10.0 mi South 9.2 mph - N/A   Clear
1:35 AM 14.9 °F 2.3 °F 7.0 °F 71% 30.33 in 10.0 mi South 10.4 mph - N/A   Clear
1:55 AM 14.7 °F 3.8 °F 7.3 °F 73% 30.33 in 10.0 mi South 8.1 mph - N/A   Clear
2:15 AM 14.7 °F 3.8 °F 7.3 °F 73% 30.33 in 10.0 mi South 8.1 mph - N/A   Clear
2:35 AM 14.9 °F 5.0 °F 7.7 °F 73% 30.34 in 10.0 mi South 6.9 mph - N/A   Clear
2:55 AM 15.4 °F 4.6 °F 7.7 °F 71% 30.34 in 10.0 mi South 8.1 mph - N/A   Clear
3:15 AM 16.2 °F 5.5 °F 8.2 °F 71% 30.35 in 10.0 mi South 8.1 mph - N/A   Clear
3:35 AM 17.4 °F 6.2 °F 8.6 °F 68% 30.34 in 10.0 mi South 9.2 mph - N/A   Clear
3:55 AM 18.5 °F 6.8 °F 9.9 °F 69% 30.34 in 10.0 mi SSW 10.4 mph - N/A   Mostly Cloudy
4:15 AM 19.4 °F 7.2 °F 10.0 °F 67% 30.34 in 10.0 mi SSW 11.5 mph - N/A   Overcast
4:35 AM 19.6 °F 9.7 °F 10.6 °F 68% 30.34 in 10.0 mi SSW 8.1 mph - N/A   Overcast
4:55 AM 19.9 °F 11.1 °F 11.1 °F 69% 30.34 in 10.0 mi SSW 6.9 mph - N/A   Overcast
5:15 AM 20.1 °F 12.3 °F 11.1 °F 68% 30.34 in 10.0 mi SSW 5.8 mph - N/A   Overcast
5:35 AM 20.1 °F 12.3 °F 11.7 °F 70% 30.34 in 10.0 mi SSW 5.8 mph - N/A   Scattered Clouds
5:55 AM 20.1 °F 11.3 °F 11.7 °F 70% 30.35 in 10.0 mi South 6.9 mph - N/A   Scattered Clouds
6:15 AM 20.3 °F 11.5 °F 12.2 °F 71% 30.35 in 10.0 mi South 6.9 mph - N/A   Clear
6:35 AM 20.3 °F 10.6 °F 12.6 °F 72% 30.34 in 10.0 mi South 8.1 mph - N/A   Scattered Clouds
6:55 AM 20.7 °F 11.9 °F 12.4 °F 70% 30.35 in 10.0 mi South 6.9 mph - N/A   Overcast
7:15 AM 20.1 °F 13.6 °F 12.7 °F 73% 30.35 in 10.0 mi South 4.6 mph - N/A   Scattered Clouds
7:35 AM 20.1 °F 12.3 °F 12.7 °F 73% 30.36 in 10.0 mi South 5.8 mph - N/A   Scattered Clouds
7:55 AM 20.1 °F 12.3 °F 13.1 °F 74% 30.37 in 10.0 mi South 5.8 mph - N/A   Mostly Cloudy
8:15 AM 19.9 °F 11.1 °F 12.9 °F 74% 30.38 in 10.0 mi SSW 6.9 mph - N/A   Scattered Clouds
8:35 AM 20.1 °F 13.6 °F 13.1 °F 74% 30.38 in 10.0 mi South 4.6 mph - N/A   Clear
8:55 AM 20.7 °F 11.9 °F 13.6 °F 74% 30.40 in 10.0 mi South 6.9 mph - N/A   Scattered Clouds
9:15 AM 21.2 °F 12.6 °F 14.4 °F 75% 30.40 in 10.0 mi South 6.9 mph - N/A   Scattered Clouds
9:35 AM 21.2 °F 13.6 °F 14.0 °F 74% 30.40 in 10.0 mi SSE 5.8 mph - N/A   Clear
9:55 AM 22.1 °F 14.7 °F 14.9 °F 74% 30.41 in 10.0 mi South 5.8 mph - N/A   Clear
10:15 AM 23.4 °F 16.2 °F 15.3 °F 71% 30.42 in 10.0 mi South 5.8 mph - N/A   Clear
10:35 AM 24.4 °F 16.5 °F 15.8 °F 70% 30.42 in 10.0 mi South 6.9 mph - N/A   Clear
10:55 AM 25.5 °F 17.8 °F 16.3 °F 68% 30.43 in 10.0 mi SSW 6.9 mph - N/A   Clear
11:15 AM 26.4 °F 16.6 °F 16.2 °F 65% 30.44 in 10.0 mi SW 10.4 mph - N/A   Clear
11:35 AM 26.6 °F 19.1 °F 16.9 °F 67% 30.44 in 10.0 mi SW 6.9 mph - N/A   Clear
11:55 AM 27.0 °F 18.7 °F 17.1 °F 66% 30.42 in 10.0 mi SSW 8.1 mph - N/A   Clear
12:15 PM 27.5 °F 19.3 °F 17.8 °F 67% 30.41 in 10.0 mi SSW 8.1 mph - N/A   Scattered Clouds
12:35 PM 27.9 °F 19.1 °F 17.8 °F 66% 30.40 in 10.0 mi SW 9.2 mph - N/A   Scattered Clouds
12:55 PM 28.4 °F 20.4 °F 18.3 °F 66% 30.39 in 10.0 mi SSW 8.1 mph - N/A   Scattered Clouds
1:15 PM 28.8 °F 23.7 °F 18.7 °F 66% 30.38 in 10.0 mi SSW 4.6 mph - N/A   Mostly Cloudy
1:35 PM 29.1 °F 21.3 °F 18.9 °F 66% 30.37 in 10.0 mi South 8.1 mph - N/A   Scattered Clouds
1:55 PM 29.3 °F 21.5 °F 18.9 °F 65% 30.38 in 10.0 mi South 8.1 mph - N/A   Scattered Clouds
2:15 PM 29.7 °F 21.3 °F 19.2 °F 65% 30.38 in 10.0 mi South 9.2 mph - N/A   Scattered Clouds
2:35 PM 29.8 °F 22.2 °F 19.0 °F 64% 30.38 in 10.0 mi SSW 8.1 mph - N/A   Clear
2:55 PM 30.2 °F 23.4 °F 18.7 °F 62% 30.39 in 10.0 mi SSW 6.9 mph - N/A   Clear
3:15 PM 30.6 °F 24.7 °F 19.6 °F 64% 30.38 in 10.0 mi SSW 5.8 mph - N/A   Scattered Clouds
3:35 PM 30.9 °F - 20.3 °F 65% 30.38 in 10.0 mi Calm Calm - N/A   Clear
3:55 PM 31.1 °F 27.7 °F 20.1 °F 64% 30.40 in 10.0 mi WSW 3.5 mph - N/A   Clear
4:15 PM 31.1 °F 27.7 °F 20.3 °F 64% 30.40 in 10.0 mi West 3.5 mph - N/A   Scattered Clouds
4:35 PM 30.9 °F - 20.8 °F 66% 30.40 in 10.0 mi Calm Calm - N/A   Mostly Cloudy
4:55 PM 30.9 °F - 22.5 °F 71% 30.40 in 10.0 mi Calm Calm - N/A   Mostly Cloudy
5:15 PM 30.2 °F - 21.7 °F 71% 30.40 in 10.0 mi Calm Calm - N/A   Scattered Clouds
5:35 PM 29.7 °F 26.1 °F 22.8 °F 76% 30.41 in 10.0 mi NNW 3.5 mph - N/A   Clear
5:55 PM 29.1 °F - 22.8 °F 77% 30.41 in 10.0 mi Calm Calm - N/A   Scattered Clouds
6:15 PM 28.8 °F - 24.3 °F 83% 30.42 in 10.0 mi Calm Calm - N/A   Overcast
6:35 PM 29.1 °F - 23.5 °F 80% 30.43 in 10.0 mi Calm Calm - N/A   Overcast
6:55 PM 29.1 °F - 23.4 °F 79% 30.44 in 10.0 mi Calm Calm - N/A   Overcast
7:15 PM 29.3 °F - 22.5 °F 76% 30.44 in 10.0 mi Calm Calm - N/A   Overcast
7:35 PM 29.3 °F - 24.8 °F 83% 30.43 in 10.0 mi Calm Calm - N/A   Overcast
7:55 PM 28.9 °F 25.2 °F 25.9 °F 88% 30.44 in 5.0 mi South 3.5 mph - N/A Snow Light Snow
8:15 PM 28.0 °F - 24.4 °F 86% 30.43 in 5.0 mi Calm Calm - N/A Snow Light Snow
8:35 PM 27.9 °F - 25.0 °F 89% 30.44 in 10.0 mi Calm Calm - N/A   Overcast
8:55 PM 28.0 °F - 25.7 °F 91% 30.44 in 10.0 mi Calm Calm - N/A   Overcast
9:15 PM 27.9 °F - 25.5 °F 91% 30.45 in 10.0 mi Calm Calm - N/A   Overcast
9:35 PM 27.7 °F - 25.3 °F 91% 30.45 in 10.0 mi Calm Calm - N/A   Overcast
9:55 PM 27.1 °F - 25.7 °F 94% 30.45 in 10.0 mi Calm Calm - N/A   Overcast
10:15 PM 27.1 °F - 25.7 °F 94% 30.46 in 10.0 mi Calm Calm - N/A   Overcast
10:35 PM 27.0 °F - 25.5 °F 94% 30.47 in 10.0 mi Calm Calm - N/A   Overcast
10:55 PM 27.3 °F - 25.7 °F 94% 30.46 in 10.0 mi Calm Calm - N/A   Overcast
11:15 PM 27.1 °F - 25.3 °F 93% 30.46 in 10.0 mi Calm Calm - N/A   Overcast
11:35 PM 26.8 °F - 24.8 °F 92% 30.46 in 10.0 mi Calm Calm - N/A   Scattered Clouds
11:55 PM 24.8 °F 20.5 °F 23.7 °F 96% 30.46 in 7.0 mi North 3.5 mph - N/A   Scattered Clouds